This demonstration page uses our WeatherBlox Daily Observations layout. Learn more.

Left ArrowRight Arrow

Hourly Observations for April 4, 2015

Temp ( °F °C ) Dew Point ( °F °C ) Humidity (%) Winds ( mph kmh ) Pressure ( in mb ) Visibility ( mi km ) Precip ( " mm )
12:53 am 00:53 Clear 39 3.9 18 -7.8 43 43 SSW 9 15 30.33 1027 10 16 0.00 0.00
1:53 am 01:53 Clear 39 3.9 18 -7.8 43 43 SSW 10 17 30.33 1027 10 16 0.00 0.00
2:53 am 02:53 Clear 37 2.8 20 -6.7 50 50 SSW 10 17 30.32 1027 10 16 0.00 0.00
3:53 am 03:53 Clear 35 1.7 21 -6.1 57 57 SW 8 13 30.32 1027 10 16 0.00 0.00
4:53 am 04:53 Clear 36 2.2 21 -6.1 55 55 SW 9 15 30.30 1026 10 16 0.00 0.00
5:53 am 05:53 Clear 34 1.1 22 -5.6 61 61 SW 8 13 30.29 1026 10 16 0.00 0.00
6:53 am 06:53 Clear 33 0.6 23 -5 66 66 SW 8 13 30.29 1026 10 16 0.00 0.00
7:53 am 07:53 Sunny 34 1.1 25 -3.9 70 70 SW 8 13 30.29 1026 10 16 0.00 0.00
8:53 am 08:53 Sunny 41 5 28 -2.2 60 60 SW 9 15 30.30 1026 10 16 0.00 0.00
9:53 am 09:53 Sunny 49 9.4 29 -1.7 46 46 WSW 13 20 30.28 1025 10 16 0.00 0.00
10:53 am 10:53 Sunny 55 12.8 27 -2.8 34 34 SW 14 22 30.27 1025 10 16 0.00 0.00
11:53 am 11:53 Sunny 60 15.6 27 -2.8 28 28 SW 15 24 30.24 1024 10 16 0.00 0.00
12:53 pm 12:53 Sunny 61 16.1 20 -6.7 20 20 SSW 21 33 30.21 1023 10 16 0.00 0.00
1:53 pm 13:53 Partly Cloudy 63 17.2 19 -7.2 18 18 SW 17 28 30.17 1022 10 16 0.00 0.00
2:53 pm 14:53 Sunny 63 17.2 19 -7.2 18 18 SSW 23 37 30.13 1020 10 16 0.00 0.00
3:53 pm 15:53 Sunny 65 18.3 20 -6.7 18 18 S 22 35 30.08 1019 10 16 0.00 0.00
4:53 pm 16:53 Sunny 65 18.3 18 -7.8 16 16 SSW 21 33 30.05 1018 10 16 0.00 0.00
5:53 pm 17:53 Sunny 65 18.3 19 -7.2 17 17 SW 18 30 30.02 1017 10 16 0.00 0.00
6:53 pm 18:53 Sunny 63 17.2 17 -8.3 17 17 SSW 18 30 30.00 1016 10 16 0.00 0.00
7:53 pm 19:53 Sunny 59 15 18 -7.8 20 20 S 10 17 30.00 1016 10 16 0.00 0.00
8:53 pm 20:53 Clear 55 12.8 19 -7.2 24 24 S 12 19 29.98 1015 10 16 0.00 0.00
9:53 pm 21:53 Clear 52 11.1 20 -6.7 28 28 S 14 22 29.98 1015 10 16 0.00 0.00
10:53 pm 22:53 Clear 50 10 18 -7.8 28 28 S 10 17 29.98 1015 10 16 0.00 0.00
11:53 pm 23:53 Clear 51 10.6 17 -8.3 26 26 S 14 22 29.96 1015 10 16 0.00 0.00

Powered by AerisWeather